Location: Columbia
(38.9520°N, 92.3340°W)
Time: 10:54:46
(UTC-06:00)

Tiangong 1 - Visible Passes

Search period start: 26 February 2017 00:00
Search period end: 08 March 2017 00:00
Orbit: 337 x 361 km, 42.8° (Epoch: 26 February)

Date Brightness Start Highest point End Pass type
(mag) Time Alt. Az. Time Alt. Az. Time Alt. Az.
26 Feb 4.4 04:24:16 12° ENE 04:24:16 12° ENE 04:24:30 10° ENE visible
26 Feb 1.9 05:55:46 15° WNW 05:57:47 36° N 06:00:33 10° ENE visible
27 Feb 3.1 04:48:10 24° NE 04:48:10 24° NE 04:49:37 10° ENE visible
28 Feb 1.9 05:12:01 35° N 05:12:04 36° N 05:14:48 10° ENE visible
01 Mar 1.6 05:35:48 23° NW 05:37:15 44° N 05:40:04 10° E visible
02 Mar 4.0 04:28:05 16° ENE 04:28:05 16° ENE 04:28:51 10° ENE visible
02 Mar 0.9 05:59:34 11° WNW 06:02:17 81° NNE 06:05:12 10° ESE visible
03 Mar 2.2 04:51:51 38° NE 04:51:51 38° NE 04:54:00 10° E visible
04 Mar 0.7 05:15:37 60° WNW 05:16:04 87° SSW 05:18:58 10° ESE visible
05 Mar 1.8 05:39:26 21° WSW 05:40:44 32° SSW 05:43:23 10° SE visible
06 Mar 3.7 04:31:48 16° ESE 04:31:48 16° ESE 04:32:30 10° ESE visible
06 Mar 3.2 06:03:57 10° WSW 06:05:11 12° SW 06:06:24 10° SSW visible
07 Mar 3.2 04:55:45 17° SSE 04:55:45 17° SSE 04:56:40 10° SSE visible
